Terminal Aerodrome Forecast
Issued by NWS

Home | Current Version | Previous Version | Text Only | Print | Product List | Glossary On
Versions: 1 2 3 4 5 6 7 8 9 10 11 12 13 14 15 16 17 18 19 20 21 22 23 24 25 26 27 28 29 30 31 32 33 34 35 36 37 38 39 40 41 42 43 44 45 46 47 48 49 50
000
FTUS45 KBOU 202300 AAB
TAFBJC
TAF AMD
KBJC 202300Z 2023/2118 VRB05KT P6SM SCT080 SCT120 BKN200
     FM210200 25005KT P6SM SCT090 BKN120
     FM211700 27012KT P6SM SCT090 BKN120=

USA.gov is the U.S. government's official web portal to all federal, state and local government web resources and services.